Weather in Monetny

Russia / Sverdlovsk Oblast     57°02′56″N   60°52′49″E
temp.,
°C
wind,
m/s
gust,
m/s
humid.,
%
clouds,
%
prec.,
mm/h
press.,
hPa
HPBL,
m
5 august, thu
thu523:00+18sse129299 0.5 101234
02:00+17s37945 0.8 1010116
05:00+17wnw119291 0.8 101011
08:00+21s018247 0.0 1009121
11:00+28s2347100 0.0 1008681
14:00+32ese123788 0.0 10071404
17:00+31wsw563378 0.0 10061839
20:00+24nw38641 0.0 1006203
6 august, fri
fri623:00+20nw41084100 0.0 1007510
02:00+17wnw389734 1.4 1008383
05:00+15wnw488799 1.6 1008583
08:00+16nw4778100 0.0 1009896
11:00+17wnw5777100 0.1 1009746
14:00+18nw4975100 0.0 1010715
17:00+18nnw51076100 0.1 1011628
20:00+16nw4976100 0.1 1011509
7 august, sat
sat723:00+16nw4979100 0.1 1012451
02:00+15nw3976100 0.0 1012402
05:00+12wnw38875 0.0 1012210
08:00+16nw49620 0.0 1013543
11:00+19nw57420 0.0 10121330
14:00+22nw57370 0.0 10121807
17:00+22nw57394 0.0 10122288
20:00+17nw496559 0.0 1014947
8 august, sun
sun823:00+14nw4107375 0.0 1014605
02:00+12nw4108041 0.0 1014507
05:00+10nw410900 0.0 1015395
08:00+12nw477525 0.0 1016433
11:00+18nnw465774 0.0 1015953
14:00+20nnw475493 0.0 10151141
17:00+22n465074 0.0 10161685
20:00+18ne247625 0.0 1017158
9 august, mon
mon923:00+14wnw25895 0.0 101897
02:00+12nw39901 0.0 1018188
05:00+11nw27945 0.0 1019151
08:00+15nw237277 0.0 1019312
11:00+20nw2257100 0.0 1018842
14:00+23nw344437 0.0 10181450
17:00+24nnw4637100 0.0 10181633
20:00+19n1165100 0.0 101811